Location: Kruen
(47.5000°N, 11.5000°E)
Time: 04:01:45
(UTC+01:00)

Tiangong - Visible Passes

Search period start: 18 February 2026 00:00
Search period end: 28 February 2026 00:00
Orbit: 385 x 391 km, 41.5° (Epoch: 17 February)

Date Brightness Start Highest point End Pass type
(mag) Time Alt. Az. Time Alt. Az. Time Alt. Az.
18 Feb -0.4 18:16:08 10° WSW 18:18:52 26° S 18:21:36 10° SE visible
18 Feb 0.5 19:53:22 10° WSW 19:54:51 14° SSW 19:54:51 14° SSW visible
19 Feb 0.1 18:54:30 10° WSW 18:56:51 19° SSW 18:59:12 10° SSE visible
21 Feb 0.6 18:34:28 10° SW 18:36:14 14° SSW 18:37:59 10° SSE visible
